This is the latest recevied weather packets stored in our database for station/object N9BLE. If no packets are shown the sender has not sent any weather packets the latest 10 day(s).
| Time | Temp. | Humidity | Pressure | Rain* | Wind** | Luminosity | Snow |
|---|---|---|---|---|---|---|---|
| 1777655393 | 9.44° C | 56% | 1020.6 hPa | 0 mm | - | 340 W/m² | - |
| 1777655090 | 9.44° C | 56% | 1020.6 hPa | 0 mm | - | 293 W/m² | - |
| 1777654787 | 9.44° C | 54% | 1020.6 hPa | 0 mm | - | 297 W/m² | - |
| 1777654485 | 9.44° C | 53% | 1020.4 hPa | 0 mm | - | 252 W/m² | - |
| 1777654182 | 8.89° C | 57% | 1020.5 hPa | 0 mm | - | 244 W/m² | - |
| 1777653880 | 8.89° C | 56% | 1020.4 hPa | 0 mm | - | 161 W/m² | - |
| 1777653577 | 8.89° C | 54% | 1020.5 hPa | 0 mm | - | 126 W/m² | - |
| 1777653273 | 9.44° C | 54% | 1020.4 hPa | 0 mm | - | 179 W/m² | - |
| 1777652969 | 9.44° C | 55% | 1020.6 hPa | 0 mm | - | 229 W/m² | - |
| 1777652666 | 8.89° C | 51% | 1020.5 hPa | 0 mm | - | 182 W/m² | - |
| 1777652363 | 8.89° C | 54% | 1020.7 hPa | 0 mm | - | 115 W/m² | - |
| 1777652060 | 9.44° C | 53% | 1020.6 hPa | 0 mm | - | 100 W/m² | - |
| 1777651757 | 8.89° C | 55% | 1020.4 hPa | 0 mm | - | 145 W/m² | - |
| 1777651453 | 8.89° C | 58% | 1020.4 hPa | 0 mm | - | 255 W/m² | - |
| 1777651151 | 8.89° C | 53% | 1020.6 hPa | 0 mm | - | 75 W/m² | - |
| 1777650848 | 8.33° C | 54% | 1020.7 hPa | 0 mm | - | 89 W/m² | - |
| 1777650544 | 8.89° C | 58% | 1020.6 hPa | 0 mm | - | 108 W/m² | - |
| 1777650242 | 8.89° C | 57% | 1020.5 hPa | 0 mm | - | 132 W/m² | - |
| 1777649939 | 9.44° C | 55% | 1020.6 hPa | 0 mm | - | 261 W/m² | - |
| 1777649636 | 8.89° C | 60% | 1020.6 hPa | 0 mm | - | 551 W/m² | - |
| 1777649332 | 8.89° C | 58% | 1020.6 hPa | 0 mm | - | 149 W/m² | - |
| 1777649030 | 8.89° C | 57% | 1020.8 hPa | 0 mm | - | 224 W/m² | - |
| 1777648727 | 8.33° C | 62% | 1020.7 hPa | 0 mm | - | 93 W/m² | - |
| 1777648423 | 8.33° C | 63% | 1020.6 hPa | 0 mm | - | 121 W/m² | - |
| 1777648119 | 8.33° C | 63% | 1020.7 hPa | 0 mm | - | 111 W/m² | - |
* Rain latest hour (hover to see other rain measurements)
** Current wind speed in m/s (hover to see current wind gust speed)